Location: LDNL
(36.4545°S, 141.6685°E)
Time: 10:26:05
(UTC+10:00)

Tiros 1 despin weight - Pass Details

Date: 14 August 2022
Orbit: 590 x 639 km, 48.2° (Epoch: 23 September)

Event Time Altitude Azimuth Distance (km) Brightness Sun altitude
Rises 06:46:20 0° 241° (WSW) 2,962 - -6.9°
Exits shadow 06:48:13 - 246° (WSW) 2,255 ? -6.6°
Reaches altitude 10° 06:48:47 10° 248° (WSW) 2,048 ? -6.4°
Maximum altitude 06:53:12 40° 317° (NW) 953 ? -5.6°
Drops below altitude 10° 06:57:34 10° 26° (NNE) 2,021 ? -4.7°
Sets 06:59:58 0° 33° (NNE) 2,918 ? -4.3°
